Timestamp[UTC];2m Lufttemperatur [degC] (tas);Stations-Luftdruck [Pa] (ps);relative Luftfeuchtigkeit [%] (hurs);spezifische Luftfeuchtigkeit [kg/kg] (huss);Niederschlagsmenge [mm] (pr);Windgeschwindigkeit in 2m [m/s] (sfcWind);Windrichtung [deg];maximale Windgeschwindigkeit [m/s] (wsgsmax);u-Windkomponente [m/s] (uas);v-Windkomponente [m/s] (vas);Sonneneinstrahlung [W/m2];Blitzrate [n];Blitzentfernung [km];Bodenfeuchte in 5cm Tiefe [vol%];Bodenfeuchte in 15cm Tiefe [vol%];Bodenfeuchte in 30cm Tiefe [vol%];Bodenfeuchte in 60cm Tiefe [vol%];Bodentemperatur in 5cm Tiefe [degC];Bodentemperatur in 15cm Tiefe [degC];Bodentemperatur in 30cm Tiefe [degC];Bodentemperatur in 60cm Tiefe [degC];Matrixpotential in 30cm Tiefe [kPa];Bodenfeuchte aus CRNS [vol%] (mrso);Neutronen Anzahl [N/h]
2023-12-01 00:00:00;0,2;100060;100;0,0039;0,0;0,5;344;2,2;-0,13;0,45;0;0;nan;27,7;27,6;29,3;27,9;3,0;3,7;4,7;6,8;-11,9;30,8;1340
2023-12-01 01:00:00;nan;nan;nan;nan;0,0;nan;nan;nan;nan;nan;nan;0;nan;27,7;27,5;29,2;27,9;3,0;3,7;4,7;6,8;-11,9;30,8;1339
2023-12-01 02:00:00;0,2;100100;100;0,0039;0,0;0,5;21;2,2;0,17;0,44;0;0;nan;27,6;27,5;29,2;27,9;3,0;3,7;4,7;6,8;-11,9;30,3;1345
2023-12-01 03:00:00;0,2;100120;100;0,0039;0,0;0,9;66;2,5;0,79;0,35;0;0;nan;27,6;27,4;29,2;27,9;3,0;3,7;4,7;6,8;-11,9;30,4;1345
2023-12-01 04:00:00;0,1;100130;100;0,0038;0,0;1,0;83;2,8;0,98;0,12;0;0;nan;27,6;27,4;29,2;27,9;3,0;3,7;4,7;6,8;-11,9;30,6;1342
2023-12-01 05:00:00;0,1;100160;100;0,0038;0,0;1,2;86;3,1;1,19;0,09;0;0;nan;27,6;27,4;29,1;27,9;3,0;3,7;4,7;6,8;-11,9;30,4;1344
2023-12-01 06:00:00;0,0;100220;99;0,0038;0,0;0,9;78;2,8;0,87;0,19;0;0;nan;27,5;27,4;29,1;27,9;3,0;3,7;4,7;6,7;-11,9;30,3;1346
2023-12-01 07:00:00;-0,1;100290;98;0,0037;0,0;0,8;62;2,5;0,69;0,37;0;0;nan;27,5;27,3;29,1;27,9;2,9;3,7;4,7;6,7;-11,9;30,1;1348
2023-12-01 08:00:00;-0,4;100340;98;0,0036;0,0;0,9;59;3,2;0,81;0,49;5;0;nan;27,4;27,3;29,1;27,9;2,9;3,7;4,7;6,7;-11,9;29,9;1351
2023-12-01 09:00:00;-0,7;100370;98;0,0035;0,0;1,3;71;3,5;1,27;0,44;15;0;nan;27,4;27,3;29,0;27,9;2,9;3,6;4,7;6,7;-12,0;30,0;1350
2023-12-01 10:00:00;-0,9;100420;98;0,0035;0,0;0,9;33;2,6;0,47;0,73;24;0;nan;27,4;27,3;29,0;27,9;2,9;3,6;4,7;6,7;-12,0;29,5;1355
2023-12-01 11:00:00;-1,0;100410;99;0,0035;0,0;0,7;20;2,6;0,23;0,63;41;0;nan;27,4;27,2;29,0;27,8;2,9;3,6;4,6;6,7;-12,0;29,7;1352
2023-12-01 12:00:00;-1,1;100410;96;0,0034;0,0;0,9;41;3,6;0,58;0,67;46;0;nan;27,3;27,2;29,0;27,8;3,0;3,6;4,6;6,7;-12,0;29,8;1352
2023-12-01 13:00:00;-1,0;100420;93;0,0033;0,0;1,0;47;3,2;0,7;0,66;38;0;nan;27,3;27,2;29,0;27,8;3,0;3,6;4,6;6,7;-12,0;29,7;1353
2023-12-01 14:00:00;-1,0;100420;91;0,0032;0,0;0,6;5;1,5;0,05;0,55;21;0;nan;27,3;27,2;28,9;27,8;3,0;3,7;4,6;6,7;-12,0;29,7;1353
2023-12-01 15:00:00;-0,9;100430;91;0,0032;0,0;0,7;57;3,0;0,59;0,38;11;0;nan;27,3;27,1;28,9;27,8;3,0;3,7;4,6;6,7;-12,0;30,0;1349
2023-12-01 16:00:00;-1,1;100450;90;0,0032;0,0;0,8;15;2,7;0,19;0,72;0;0;nan;27,2;27,1;28,9;27,8;2,9;3,7;4,6;6,6;-12,0;29,9;1350
2023-12-01 17:00:00;-1,3;100500;88;0,003;0,0;1,3;62;4,4;1,15;0,6;0;0;nan;27,1;27,1;28,8;27,8;2,8;3,6;4,6;6,6;-12,0;30,1;1348
2023-12-01 18:00:00;-1,6;100530;89;0,003;0,0;1,2;51;4,1;0,92;0,75;0;0;nan;27,1;27,1;28,8;27,8;2,7;3,6;4,6;6,6;-12,0;30,3;1346
2023-12-01 19:00:00;-1,7;100550;89;0,003;0,0;1,5;77;4,6;1,46;0,35;0;0;nan;27,1;27,0;28,8;27,8;2,6;3,5;4,6;6,6;-12,0;30,8;1340
2023-12-01 20:00:00;-1,8;100570;89;0,003;0,0;1,1;72;4,1;1,07;0,35;0;0;nan;27,0;27,0;28,8;27,8;2,5;3,5;4,6;6,6;-12,0;30,8;1340
2023-12-01 21:00:00;-1,7;100590;90;0,003;0,0;0,9;50;3,0;0,71;0,59;0;0;nan;27,0;27,0;28,8;27,8;2,4;3,4;4,6;6,6;-12,0;30,6;1342
2023-12-01 22:00:00;-1,8;100610;90;0,003;0,0;0,5;351;2,0;-0,07;0,46;0;0;nan;27,0;27,0;28,7;27,8;2,4;3,4;4,5;6,6;-12,0;30,6;1342
2023-12-01 23:00:00;-2,0;100640;91;0,003;0,0;0,5;333;1,6;-0,21;0,41;0;0;nan;27,0;27,0;28,7;27,8;2,3;3,3;4,5;6,6;-12,0;30,5;1343
2023-12-02 00:00:00;-1,9;100640;91;0,003;0,0;0,5;346;1,7;-0,13;0,52;0;0;nan;26,9;26,9;28,7;27,8;2,3;3,2;4,5;6,6;-12,0;30,5;1344
2023-12-02 01:00:00;-2,0;100630;89;0,0029;0,0;0,7;358;2,1;-0,02;0,73;0;0;nan;26,9;26,9;28,7;27,8;2,2;3,2;4,4;6,5;-12,0;30,3;1345
2023-12-02 02:00:00;-2,1;100660;90;0,0029;0,0;0,4;333;1,9;-0,2;0,4;0;0;nan;26,9;26,9;28,6;27,7;2,1;3,2;4,4;6,5;-12,0;30,7;1341
2023-12-02 03:00:00;-2,2;100700;91;0,0029;0,0;0,7;341;2,6;-0,23;0,65;0;0;nan;26,9;26,9;28,6;27,7;2,1;3,1;4,4;6,5;-12,0;30,6;1342
2023-12-02 04:00:00;-2,3;100730;91;0,0029;0,0;0,6;350;2,4;-0,11;0,61;0;0;nan;26,8;26,8;28,6;27,7;2,1;3,1;4,3;6,5;-12,0;30,1;1347
2023-12-02 05:00:00;-2,4;100780;91;0,0029;0,0;0,8;333;2,6;-0,38;0,74;0;0;nan;26,8;26,9;28,6;27,7;2,0;3,0;4,3;6,5;-12,0;30,1;1348
2023-12-02 06:00:00;-3,1;100820;93;0,0028;0,0;0,4;277;1,1;-0,41;0,05;0;0;nan;26,8;26,9;28,5;27,7;2,0;3,0;4,3;6,5;-12,0;30,2;1346
2023-12-02 07:00:00;-3,0;100870;95;0,0029;0,0;0,6;283;1,2;-0,54;0,12;2;0;nan;26,7;26,8;28,5;27,7;1,9;3,0;4,3;6,5;-12,0;30,1;1348
2023-12-02 08:00:00;-3,1;100930;97;0,0029;0,0;0,5;268;1,7;-0,53;-0,02;26;0;nan;26,7;26,7;28,5;27,7;1,8;2,9;4,2;6,4;-12,0;30,2;1347
2023-12-02 09:00:00;-2,4;100970;99;0,0031;0,0;0,9;282;2,7;-0,91;0,2;117;0;nan;26,7;26,7;28,5;27,7;1,7;2,9;4,2;6,4;-12,0;30,3;1346
2023-12-02 10:00:00;-1,1;100960;98;0,0034;0,0;1,0;263;2,8;-1,05;-0,12;183;0;nan;26,7;26,7;28,4;27,7;1,7;2,8;4,2;6,4;-12,0;30,4;1345
2023-12-02 11:00:00;-0,6;100960;91;0,0033;0,0;1,1;235;3,8;-0,92;-0,65;165;0;nan;26,6;26,6;28,4;27,7;1,7;2,7;4,1;6,4;-12,0;30,4;1345
2023-12-02 12:00:00;-0,3;100980;89;0,0033;0,0;1,2;268;3,8;-1,25;-0,05;152;0;nan;26,6;26,6;28,4;27,7;1,8;2,7;4,1;6,4;-12,0;30,1;1348
2023-12-02 13:00:00;nan;nan;nan;nan;0,0;nan;nan;nan;nan;nan;nan;0;nan;26,6;26,6;28,4;27,7;1,9;2,7;4,1;6,4;-12,1;30,4;1344
2023-12-02 14:00:00;-0,2;101040;87;0,0032;0,0;1,3;273;4,0;-1,28;0,07;65;0;nan;26,6;26,6;28,4;27,7;2,0;2,8;4,0;6,4;-12,1;30,5;1343
2023-12-02 15:00:00;-0,4;101070;87;0,0032;0,0;1,0;230;3,8;-0,73;-0,61;33;0;nan;26,6;26,6;28,3;27,7;2,0;2,8;4,0;6,3;-12,1;30,5;1344
2023-12-02 16:00:00;-1,2;101220;89;0,0031;0,0;0,7;217;1,5;-0,37;-0,49;1;0;nan;26,6;26,6;28,3;27,7;2,0;2,8;4,0;6,3;-12,1;30,5;1343
2023-12-02 17:00:00;-1,8;101300;91;0,003;0,0;0,5;210;1,7;-0,27;-0,47;0;0;nan;26,6;26,5;28,3;27,7;1,8;2,8;4,0;6,3;-12,1;30,3;1346
2023-12-02 18:00:00;-0,6;101360;91;0,0033;0,0;0,9;228;3,3;-0,7;-0,62;0;0;nan;26,5;26,5;28,3;27,7;1,8;2,8;4,0;6,3;-12,1;30,1;1348
2023-12-02 19:00:00;-0,4;101370;91;0,0033;0,0;0,8;222;3,6;-0,53;-0,59;0;0;nan;26,5;26,5;28,3;27,7;1,7;2,7;4,0;6,3;-12,1;30,0;1349
2023-12-02 20:00:00;-0,1;101420;92;0,0034;0,0;1,0;229;3,1;-0,73;-0,64;0;0;nan;26,5;26,5;28,2;27,7;1,7;2,7;4,0;6,2;-12,1;30,0;1349
2023-12-02 21:00:00;0,0;101440;92;0,0035;0,0;0,7;242;1,9;-0,65;-0,34;0;0;nan;26,5;26,5;28,2;27,6;1,7;2,7;3,9;6,2;-12,1;29,9;1351
2023-12-02 22:00:00;0,1;101450;93;0,0035;0,0;1,2;211;4,4;-0,61;-1,01;0;0;nan;26,5;26,4;28,2;27,6;1,7;2,7;3,9;6,2;-12,1;29,7;1353
2023-12-02 23:00:00;0,0;101490;92;0,0035;0,0;1,1;208;3,6;-0,52;-0,97;0;0;nan;26,4;26,4;28,2;27,6;1,7;2,7;3,9;6,2;-12,1;29,7;1352
2023-12-03 00:00:00;0,1;101513;92;0,0035;0,0;1,1;221;3,4;-0,7;-0,8;0;0;nan;26,4;26,5;28,2;27,6;1,7;2,6;3,9;6,2;-12,1;29,7;1352
2023-12-03 01:00:00;0,1;101540;94;0,0036;0,0;1,3;216;7,4;-0,75;-1,04;0;0;nan;26,4;26,4;28,1;27,6;1,7;2,6;3,9;6,2;-12,1;29,7;1353
2023-12-03 02:00:00;0,0;101600;95;0,0036;0,0;1,4;229;7,6;-1,08;-0,95;0;0;nan;26,4;26,4;28,1;27,6;1,7;2,6;3,9;6,2;-12,1;29,5;1356
2023-12-03 03:00:00;0,1;101620;96;0,0036;0,0;1,1;240;3,9;-0,97;-0,57;0;0;nan;26,4;26,3;28,1;27,6;1,8;2,6;3,8;6,1;-12,1;29,4;1357
2023-12-03 04:00:00;0,5;101650;97;0,0038;0,0;1,1;223;3,9;-0,78;-0,83;0;0;nan;26,4;26,3;28,1;27,6;1,8;2,6;3,8;6,1;-12,1;29,5;1355
2023-12-03 05:00:00;0,6;101680;96;0,0038;0,0;1,2;217;4,7;-0,7;-0,92;0;0;nan;26,4;26,3;28,1;27,6;1,8;2,6;3,8;6,1;-12,1;29,8;1352
2023-12-03 06:00:00;nan;nan;nan;nan;0,0;nan;nan;nan;nan;nan;nan;0;nan;26,4;26,3;28,1;27,6;1,9;2,6;3,8;6,1;-12,1;29,6;1354
2023-12-03 07:00:00;0,6;101720;96;0,0038;0,0;1,2;198;3,5;-0,37;-1,11;0;0;nan;26,4;26,3;28,0;27,6;1,9;2,7;3,8;6,1;-12,1;29,5;1355
2023-12-03 08:00:00;0,8;101775;95;0,0038;0,0;1,5;202;3,9;-0,55;-1,38;34;0;nan;26,3;26,2;28,0;27,6;2,0;2,7;3,8;6,1;-12,1;29,3;1358
2023-12-03 09:00:00;1,3;101780;97;0,004;0,0;1,7;192;4,2;-0,37;-1,7;99;0;nan;26,3;26,2;28,0;27,6;2,0;2,7;3,8;6,0;-12,1;28,9;1363
2023-12-03 10:00:00;2,2;101770;93;0,0041;0,0;2,0;193;4,8;-0,44;-1,9;177;0;nan;26,3;26,2;28,0;27,6;2,1;2,7;3,8;6,0;-12,1;28,6;1367
2023-12-03 11:00:00;2,8;101750;88;0,004;0,0;1,9;195;4,7;-0,49;-1,85;217;0;nan;26,3;26,2;27,9;27,6;2,2;2,7;3,8;6,0;-12,1;28,3;1370
2023-12-03 12:00:00;2,8;101700;84;0,0038;0,0;1,9;173;5,2;0,23;-1,87;151;0;nan;26,3;26,2;27,9;27,6;2,5;2,8;3,8;6,0;-12,1;28,7;1365
2023-12-03 13:00:00;2,4;101670;83;0,0037;0,0;1,6;170;4,8;0,29;-1,62;113;0;nan;26,3;26,2;27,9;27,6;2,5;2,9;3,8;6,0;-12,1;28,7;1365
2023-12-03 14:00:00;nan;nan;nan;nan;0,0;nan;nan;nan;nan;nan;nan;0;nan;26,3;26,1;27,9;27,6;2,6;3,0;3,8;6,0;-12,2;28,4;1369
2023-12-03 15:00:00;2,0;101620;81;0,0035;0,0;1,8;164;4,6;0,5;-1,69;43;0;nan;26,3;26,1;27,9;27,6;2,5;3,0;3,9;6,0;-12,1;28,5;1368
2023-12-03 16:00:00;1,1;101660;83;0,0034;0,0;2,3;169;5,9;0,44;-2,25;2;0;nan;26,2;26,1;27,9;27,6;2,4;3,0;3,9;6,0;-12,1;28,5;1368
2023-12-03 17:00:00;0,5;101592;84;0,0033;0,0;2,0;162;5,0;0,62;-1,94;0;0;nan;26,2;26,1;27,8;27,5;2,3;3,0;3,9;5,9;-12,2;28,8;1364
2023-12-03 18:00:00;nan;nan;nan;nan;0,0;nan;nan;nan;nan;nan;nan;0;nan;26,2;26,1;27,8;27,5;2,2;3,0;3,9;5,9;-12,2;28,8;1365
2023-12-03 19:00:00;0,8;101520;83;0,0033;0,0;2,6;166;7,4;0,62;-2,48;0;0;nan;26,2;26,1;27,8;27,5;2,2;3,0;3,9;5,9;-12,2;29,3;1358
2023-12-03 20:00:00;0,2;101440;91;0,0035;0,0;2,8;160;7,3;0,95;-2,6;0;0;nan;26,2;26,0;27,8;27,5;2,2;2,9;3,9;5,9;-12,2;29,9;1351
2023-12-03 21:00:00;-0,1;101360;96;0,0036;0,0;2,2;159;8,4;0,77;-2,05;0;0;nan;26,2;26,0;27,8;27,5;2,1;2,9;3,9;5,9;-12,2;30,1;1349
2023-12-03 22:00:00;nan;nan;nan;nan;0,0;nan;nan;nan;nan;nan;nan;0;nan;26,2;26,0;27,8;27,5;2,1;2,9;3,9;5,9;-12,2;30,6;1342
2023-12-03 23:00:00;0,0;101280;98;0,0037;0,0;1,4;157;5,0;0,56;-1,3;0;0;nan;26,2;26,0;27,7;27,5;2,1;2,8;3,9;5,9;-12,2;30,7;1341
2023-12-04 00:00:00;0,3;101150;97;0,0037;0,0;0,6;135;2,1;0,44;-0,44;0;0;nan;26,2;26,0;27,7;27,5;2,1;2,8;3,9;5,9;-12,2;30,4;1345
2023-12-04 01:00:00;nan;nan;nan;nan;0,0;nan;nan;nan;nan;nan;nan;0;nan;26,2;26,0;27,7;27,5;2,2;2,9;3,9;5,9;-12,2;30,6;1342
2023-12-04 02:00:00;0,4;101050;95;0,0037;0,0;0,6;121;2,3;0,56;-0,34;0;0;nan;26,3;26,0;27,7;27,5;2,2;2,8;3,9;5,9;-12,2;31,5;1332
2023-12-04 03:00:00;0,1;100980;92;0,0035;0,0;0,7;108;2,7;0,69;-0,22;0;0;nan;26,2;26,0;27,7;27,5;2,2;2,9;3,8;5,9;-12,2;31,8;1328
2023-12-04 04:00:00;0,4;100890;91;0,0035;0,0;0,8;108;3,9;0,71;-0,23;0;0;nan;26,2;26,0;27,7;27,5;2,2;2,9;3,8;5,9;-12,2;32,2;1324
2023-12-04 05:00:00;0,9;100830;86;0,0035;0,0;0,9;142;3,0;0,57;-0,72;0;0;nan;26,3;25,9;27,6;27,5;2,2;2,9;3,8;5,9;-12,3;32,2;1324
2023-12-04 06:00:00;1,2;100800;81;0,0033;0,0;1,2;165;3,0;0,29;-1,11;0;0;nan;26,2;25,9;27,6;27,5;2,2;2,9;3,8;5,9;-12,2;32,4;1322
2023-12-04 07:00:00;1,5;100750;78;0,0033;0,0;1,9;154;4,8;0,81;-1,69;0;0;nan;26,2;25,9;27,6;27,5;2,2;2,9;3,8;5,9;-12,2;32,2;1324
2023-12-04 08:00:00;1,6;100677;76;0,0032;0,0;1,4;120;4,6;1,22;-0,7;16;0;nan;26,2;25,9;27,6;27,5;2,2;2,9;3,8;5,8;-12,2;32,7;1319
2023-12-04 09:00:00;2,1;100610;75;0,0033;0,0;1,5;127;4,4;1,16;-0,89;40;0;nan;26,3;25,9;27,6;27,5;2,2;2,9;3,8;5,8;-12,3;33,0;1316
2023-12-04 10:00:00;2,1;100520;75;0,0033;0,0;1,4;87;2,9;1,35;0,06;47;0;nan;26,3;25,9;27,6;27,5;2,3;2,9;3,8;5,8;-12,3;33,5;1310
2023-12-04 11:00:00;2,6;100440;75;0,0034;0,0;1,6;128;6,3;1,28;-1,01;74;0;nan;26,3;25,9;27,5;27,5;2,3;2,9;3,8;5,8;-12,3;33,6;1310
2023-12-04 12:00:00;3,0;100350;75;0,0035;1,06;2,7;150;6,4;1,36;-2,32;64;0;nan;26,3;25,9;27,5;27,5;2,4;2,9;3,8;5,8;-12,3;33,0;1315
2023-12-04 13:00:00;2,5;100310;81;0,0037;0,12;1,8;149;4,8;0,91;-1,51;35;0;nan;26,3;25,9;27,5;27,5;2,5;2,9;3,8;5,8;-12,3;33,5;1311
2023-12-04 14:00:00;2,1;100260;87;0,0038;0,54;1,9;119;7,7;1,65;-0,93;50;0;nan;26,4;25,9;27,5;27,5;2,5;3,0;3,8;5,8;-12,3;33,6;1309
2023-12-04 15:00:00;1,7;100180;93;0,004;0,2;1,7;93;4,7;1,72;-0,08;10;0;nan;26,6;25,9;27,5;27,4;2,6;3,0;3,8;5,8;-12,3;34,0;1305
2023-12-04 16:00:00;2,5;100100;91;0,0041;0,05;1,8;116;5,3;1,64;-0,79;0;0;nan;26,9;25,9;27,5;27,4;2,6;3,0;3,8;5,8;-12,3;34,2;1304
2023-12-04 17:00:00;2,4;100040;94;0,0043;0,24;1,8;124;6,0;1,47;-0,99;0;0;nan;27,1;26,0;27,5;27,4;2,6;3,1;3,9;5,8;-12,3;33,9;1306
2023-12-04 18:00:00;1,5;100010;97;0,0041;0,61;1,4;87;3,2;1,44;0,08;0;0;nan;27,3;26,1;27,5;27,4;2,6;3,1;3,9;5,8;-12,3;34,3;1302
2023-12-04 19:00:00;1,3;99950;98;0,0041;0,48;1,2;80;3,7;1,23;0,21;0;0;nan;27,5;26,2;27,4;27,4;2,6;3,1;3,9;5,8;-12,3;34,1;1305
2023-12-04 20:00:00;1,7;99860;98;0,0042;0,83;1,3;85;2,9;1,27;0,1;0;0;nan;27,8;26,3;27,4;27,4;2,6;3,1;3,9;5,8;-12,3;33,9;1306
2023-12-04 21:00:00;1,9;99800;99;0,0043;0,07;1,4;81;4,6;1,42;0,23;0;0;nan;28,2;26,4;27,4;27,4;2,7;3,1;3,9;5,8;-12,3;33,9;1306
2023-12-04 22:00:00;2,0;99760;100;0,0044;0,63;1,3;85;4,0;1,33;0,11;0;0;nan;28,5;26,6;27,5;27,4;2,7;3,2;3,9;5,8;-12,3;34,1;1304
2023-12-04 23:00:00;1,9;99730;100;0,0044;0,25;1,3;82;3,0;1,3;0,19;0;0;nan;28,8;26,7;27,5;27,4;2,8;3,2;3,9;5,8;-12,3;34,4;1301
2023-12-05 00:00:00;2,0;99700;100;0,0044;0,2;1,3;80;4,4;1,28;0,22;0;0;nan;29,1;27,0;27,5;27,4;2,8;3,2;3,9;5,7;-12,3;35,0;1295
2023-12-05 01:00:00;2,1;99653;100;0,0045;0,84;1,4;78;3,5;1,41;0,31;0;0;nan;29,3;27,2;27,6;27,4;2,8;3,2;3,9;5,7;-12,3;35,4;1291
2023-12-05 02:00:00;2,3;99620;100;0,0045;0,19;1,4;74;3,5;1,34;0,38;0;0;nan;29,4;27,4;27,6;27,4;2,9;3,3;4,0;5,8;-12,3;35,1;1294
2023-12-05 03:00:00;2,6;99600;100;0,0046;0,41;1,3;75;3,2;1,26;0,33;0;0;nan;29,4;27,6;27,7;27,4;2,9;3,3;4,0;5,7;-12,3;34,9;1297
2023-12-05 04:00:00;2,7;99580;100;0,0046;1,2;1,5;75;3,3;1,43;0,38;0;0;nan;29,5;27,7;27,8;27,4;3,0;3,3;4,0;5,7;-12,2;34,8;1297
2023-12-05 05:00:00;2,8;99570;100;0,0047;0,03;1,2;79;3,1;1,16;0,23;0;0;nan;29,7;27,9;27,9;27,4;3,0;3,4;4,0;5,7;-12,2;35,0;1296
2023-12-05 06:00:00;3,0;99570;100;0,0047;0,74;1,1;70;2,9;1,08;0,4;0;0;nan;29,8;28,1;28,0;27,4;3,1;3,4;4,0;5,7;-12,2;35,4;1292
2023-12-05 07:00:00;3,2;99590;100;0,0048;0,58;1,0;73;3,3;1,01;0,3;0;0;nan;30,0;28,3;28,2;27,4;3,2;3,4;4,0;5,7;-12,2;35,9;1287
2023-12-05 08:00:00;3,5;99640;100;0,0049;0,43;0,8;70;2,4;0,79;0,29;12;0;nan;30,1;28,5;28,3;27,4;3,2;3,5;4,0;5,7;-12,2;36,0;1286
2023-12-05 09:00:00;4,9;99670;99;0,0054;1,04;1,0;133;3,0;0,72;-0,68;24;0;nan;30,4;28,6;28,5;27,4;3,4;3,5;4,1;5,7;-12,1;36,0;1286
2023-12-05 10:00:00;6,3;99710;100;0,006;0,83;1,5;178;3,9;0,04;-1,52;19;0;nan;30,8;28,9;28,6;27,4;3,6;3,6;4,1;5,7;-12,1;36,1;1285
2023-12-05 11:00:00;6,7;99730;100;0,0061;2,34;1,6;184;4,2;-0,11;-1,64;33;0;nan;31,3;29,2;28,9;27,4;3,8;3,7;4,1;5,7;-12,1;36,4;1283
2023-12-05 12:00:00;6,7;99760;100;0,0061;0,22;1,3;185;3,1;-0,12;-1,33;40;0;nan;31,7;29,7;29,1;27,4;4,0;3,8;4,1;5,7;-12,1;36,8;1278
2023-12-05 13:00:00;6,3;99780;100;0,006;1,02;1,4;242;3,8;-1,25;-0,66;21;0;nan;31,9;30,1;29,5;27,4;4,2;3,9;4,2;5,7;-12,0;36,4;1282
2023-12-05 14:00:00;4,6;99830;100;0,0053;0,36;1,3;288;4,1;-1,25;0,4;9;0;nan;32,0;30,3;30,0;27,4;4,3;4,1;4,2;5,7;-12,0;36,2;1284
2023-12-05 15:00:00;3,3;99940;100;0,0048;0,07;1,8;300;4,7;-1,51;0,88;2;0;nan;31,8;30,4;30,4;27,4;4,3;4,1;4,3;5,7;-11,9;35,7;1289
2023-12-05 16:00:00;2,4;100050;100;0,0045;0,09;1,6;301;3,8;-1,37;0,83;0;0;nan;31,6;30,4;30,7;27,4;4,3;4,2;4,4;5,7;-11,9;35,8;1288
2023-12-05 17:00:00;1,9;100180;100;0,0044;0,12;1,6;290;4,1;-1,53;0,57;0;0;nan;31,4;30,3;30,9;27,4;4,2;4,2;4,4;5,7;-11,9;35,8;1288
2023-12-05 18:00:00;1,5;100260;100;0,0042;0,4;1,3;282;3,7;-1,3;0,27;0;0;nan;31,2;30,3;31,0;27,4;4,1;4,2;4,4;5,8;-11,8;35,3;1292
2023-12-05 19:00:00;1,2;100330;100;0,0041;0,07;1,3;286;3,2;-1,26;0,35;0;0;nan;31,0;30,2;31,0;27,4;4,0;4,2;4,5;5,7;-11,8;35,1;1294
2023-12-05 20:00:00;1,1;100390;100;0,0041;0,3;1,3;282;3,3;-1,27;0,28;0;0;nan;30,9;30,2;31,1;27,4;3,9;4,2;4,5;5,8;-11,8;35,0;1295
2023-12-05 21:00:00;nan;nan;nan;nan;0,0;nan;nan;nan;nan;nan;nan;0;nan;30,8;30,1;31,1;27,4;3,8;4,2;4,5;5,8;-11,8;35,5;1291
2023-12-05 22:00:00;1,0;100440;100;0,0041;0,05;1,2;277;3,4;-1,15;0,15;0;0;nan;30,7;30,1;31,1;27,4;3,7;4,1;4,5;5,8;-11,8;35,4;1292
2023-12-05 23:00:00;0,9;100520;100;0,004;0,02;1,3;281;3,4;-1,3;0,26;0;0;nan;30,6;30,0;31,1;27,4;3,7;4,1;4,5;5,8;-11,8;35,2;1294
2023-12-06 00:00:00;0,6;100560;100;0,004;0,0;1,0;269;3,6;-1,05;-0,02;0;0;nan;30,4;29,9;31,1;27,4;3,6;4,0;4,5;5,8;-11,8;34,7;1298
2023-12-06 01:00:00;0,5;100590;100;0,0039;0,0;1,1;274;4,0;-1,09;0,08;0;0;nan;30,3;29,8;31,1;27,4;3,5;4,0;4,5;5,8;-11,8;34,1;1304
2023-12-06 02:00:00;0,3;100660;100;0,0039;0,03;0,9;275;3,5;-0,94;0,08;0;0;nan;30,3;29,8;31,1;27,4;3,4;4,0;4,5;5,8;-11,8;34,3;1302
2023-12-06 03:00:00;0,3;100690;100;0,0039;0,1;1,1;277;3,5;-1,05;0,12;0;0;nan;30,2;29,7;31,0;27,5;3,3;3,9;4,5;5,8;-11,8;33,9;1306
2023-12-06 04:00:00;0,3;100720;100;0,0039;0,07;1,1;274;3,1;-1,11;0,08;0;0;nan;30,2;29,7;31,0;27,5;3,3;3,9;4,5;5,8;-11,8;33,6;1309
2023-12-06 05:00:00;0,5;100770;100;0,0039;0,19;0,9;261;3,1;-0,9;-0,14;0;0;nan;30,1;29,7;31,0;27,5;3,2;3,8;4,5;5,8;-11,8;33,5;1310
2023-12-06 06:00:00;1,1;100843;100;0,0041;0,61;0,9;258;2,6;-0,87;-0,19;0;0;nan;30,1;29,6;31,0;27,5;3,2;3,8;4,5;5,8;-11,8;33,0;1315
2023-12-06 07:00:00;nan;nan;nan;nan;0,0;nan;nan;nan;nan;nan;nan;0;nan;30,0;29,6;31,0;27,5;3,2;3,8;4,5;5,8;-11,8;32,7;1319
2023-12-06 08:00:00;1,5;100910;100;0,0042;0,17;0,9;266;2,9;-0,91;-0,07;1;0;nan;30,0;29,5;31,0;27,5;3,2;3,7;4,4;5,8;-11,8;32,4;1322
2023-12-06 09:00:00;1,8;100960;100;0,0043;0,02;0,7;254;1,9;-0,71;-0,2;11;0;nan;30,0;29,5;30,9;27,5;3,3;3,7;4,4;5,8;-11,8;32,6;1320
2023-12-06 10:00:00;2,5;101000;100;0,0045;0,0;1,0;259;2,9;-0,98;-0,19;25;0;nan;29,9;29,5;30,9;27,5;3,4;3,7;4,4;5,8;-11,8;32,4;1321
2023-12-06 11:00:00;3,0;101030;100;0,0047;0,0;1,1;239;3,9;-0,95;-0,57;52;0;nan;29,8;29,4;30,9;27,5;3,5;3,8;4,4;5,8;-11,8;32,1;1325
2023-12-06 12:00:00;3,6;101030;100;0,0049;0,0;1,1;253;3,6;-1,03;-0,31;45;0;nan;29,8;29,4;30,9;27,5;3,7;3,8;4,4;5,8;-11,8;31,9;1328
2023-12-06 13:00:00;4,0;101060;100;0,005;0,0;1,1;263;4,2;-1,1;-0,14;61;0;nan;29,7;29,3;30,9;27,5;3,9;3,9;4,4;5,8;-11,8;31,9;1327
2023-12-06 14:00:00;4,3;101100;100;0,0051;0,0;0,9;255;2,8;-0,86;-0,23;62;0;nan;29,6;29,3;30,8;27,5;4,1;4,0;4,4;5,8;-11,8;31,8;1329
2023-12-06 15:00:00;4,0;101150;99;0,005;0,0;0,8;229;2,4;-0,57;-0,49;17;0;nan;29,5;29,2;30,8;27,5;4,1;4,1;4,4;5,8;-11,8;31,8;1328
2023-12-06 16:00:00;3,0;101240;97;0,0045;0,0;0,7;213;2,4;-0,4;-0,62;0;0;nan;29,5;29,2;30,8;27,5;3,9;4,1;4,5;5,8;-11,8;31,5;1332
2023-12-06 17:00:00;2,3;101330;95;0,0042;0,0;0,7;213;2,7;-0,37;-0,56;0;0;nan;29,4;29,1;30,7;27,6;3,7;4,1;4,5;5,8;-11,8;31,6;1331
2023-12-06 18:00:00;2,1;101390;98;0,0043;0,0;0,6;216;2,0;-0,34;-0,47;0;0;nan;29,3;29,1;30,7;27,6;3,5;4,1;4,5;5,8;-11,8;31,5;1332
2023-12-06 19:00:00;2,2;101450;98;0,0043;0,0;0,6;227;1,9;-0,42;-0,39;0;0;nan;29,3;29,0;30,6;27,6;3,4;4,0;4,5;5,8;-11,8;31,5;1331
2023-12-06 20:00:00;1,6;101490;99;0,0042;0,0;0,4;254;1,2;-0,43;-0,12;0;0;nan;29,2;29,0;30,6;27,6;3,3;3,9;4,5;5,8;-11,8;31,5;1332
2023-12-06 21:00:00;1,2;101530;98;0,004;0,0;0,5;234;1,7;-0,39;-0,28;0;0;nan;29,1;28,9;30,6;27,6;3,2;3,9;4,5;5,8;-11,8;31,1;1336
2023-12-06 22:00:00;nan;nan;nan;nan;0,0;nan;nan;nan;nan;nan;nan;0;nan;29,1;28,9;30,5;27,6;3,1;3,8;4,5;5,8;-11,8;31,0;1338
2023-12-06 23:00:00;0,6;101570;99;0,0039;0,0;0,5;247;1,3;-0,43;-0,18;0;0;nan;29,0;28,8;30,5;27,6;3,0;3,8;4,5;5,8;-11,8;30,6;1342
2023-12-07 00:00:00;0,1;101630;99;0,0037;0,0;0,6;241;1,0;-0,53;-0,29;0;0;nan;29,0;28,8;30,4;27,6;2,9;3,7;4,5;5,8;-11,8;30,4;1345
2023-12-07 01:00:00;-0,3;101660;99;0,0036;0,0;0,5;211;1,6;-0,26;-0,44;0;0;nan;28,9;28,7;30,4;27,6;2,8;3,6;4,4;5,8;-11,8;30,4;1344
2023-12-07 02:00:00;-0,1;101680;100;0,0037;0,0;0,6;203;1,4;-0,21;-0,5;0;0;nan;28,9;28,7;30,3;27,6;2,7;3,5;4,4;5,8;-11,8;30,1;1348
2023-12-07 03:00:00;-0,3;101700;100;0,0037;0,0;0,8;186;1,8;-0,08;-0,78;0;0;nan;28,8;28,7;30,3;27,6;2,7;3,5;4,4;5,9;-11,8;30,1;1347
2023-12-07 04:00:00;-0,1;101700;100;0,0037;0,0;0,9;195;2,5;-0,24;-0,89;0;0;nan;28,8;28,6;30,3;27,6;2,7;3,4;4,3;5,8;-11,8;30,5;1343
2023-12-07 05:00:00;0,2;101730;100;0,0038;0,0;0,4;204;0,9;-0,15;-0,33;0;0;nan;28,7;28,5;30,2;27,6;2,7;3,4;4,3;5,8;-11,8;30,5;1344
2023-12-07 06:00:00;0,8;101720;100;0,004;0,12;0,5;180;1,3;0,0;-0,48;0;0;nan;28,7;28,6;30,2;27,6;2,7;3,4;4,3;5,8;-11,8;30,7;1340
2023-12-07 07:00:00;1,5;101710;100;0,0042;0,03;0,8;176;2,8;0,05;-0,81;1;0;nan;28,7;28,5;30,1;27,6;2,7;3,4;4,3;5,8;-11,8;30,9;1338
2023-12-07 08:00:00;1,0;101690;100;0,004;0,02;0,5;233;1,3;-0,38;-0,29;36;0;nan;28,6;28,5;30,1;27,6;2,7;3,4;4,2;5,8;-11,8;31,1;1336
2023-12-07 09:00:00;2,0;101690;100;0,0043;0,02;0,6;192;2,0;-0,13;-0,62;112;0;nan;28,6;28,5;30,0;27,6;2,6;3,4;4,2;5,8;-11,8;31,1;1337
2023-12-07 10:00:00;3,8;101650;100;0,0049;0,0;1,4;159;3,8;0,51;-1,31;168;0;nan;28,6;28,4;30,0;27,6;2,6;3,3;4,2;5,8;-11,8;31,1;1337
2023-12-07 11:00:00;4,6;101540;100;0,0052;0,0;1,7;172;4,4;0,23;-1,69;198;0;nan;28,5;28,4;30,0;27,6;2,7;3,3;4,2;5,8;-11,9;31,3;1335
2023-12-07 12:00:00;5,8;101420;95;0,0054;0,0;1,7;164;4,2;0,47;-1,66;177;0;nan;28,5;28,4;29,9;27,6;2,9;3,3;4,2;5,8;-11,9;31,7;1329
2023-12-07 13:00:00;nan;nan;nan;nan;0,0;nan;nan;nan;nan;nan;nan;0;nan;28,4;28,3;29,9;27,6;3,1;3,4;4,2;5,8;-11,9;31,8;1329
2023-12-07 14:00:00;5,4;101370;88;0,0049;0,0;1,5;170;4,2;0,26;-1,47;103;0;nan;28,4;28,3;29,9;27,6;3,1;3,4;4,2;5,8;-11,8;31,9;1327
2023-12-07 15:00:00;4,0;101320;86;0,0043;0,0;1,8;147;5,2;0,96;-1,49;35;0;nan;28,4;28,3;29,8;27,6;3,0;3,5;4,2;5,8;-11,9;31,9;1327
2023-12-07 16:00:00;2,8;101250;87;0,004;0,0;1,3;102;3,1;1,28;-0,27;2;0;nan;28,3;28,2;29,8;27,6;2,9;3,5;4,2;5,8;-11,9;32,2;1324
2023-12-07 17:00:00;1,8;101190;89;0,0038;0,0;1,2;88;3,1;1,2;0,05;0;0;nan;28,3;28,3;29,8;27,6;2,7;3,4;4,2;5,8;-11,9;32,2;1324
2023-12-07 18:00:00;1,1;101150;92;0,0038;0,0;0,9;84;2,2;0,85;0,09;0;0;nan;28,3;28,2;29,7;27,6;2,6;3,4;4,2;5,7;-11,9;32,2;1324
2023-12-07 19:00:00;0,8;101090;94;0,0037;0,0;0,9;79;2,2;0,9;0,17;0;0;nan;28,2;28,2;29,7;27,6;2,5;3,3;4,2;5,7;-11,9;32,2;1324
2023-12-07 20:00:00;0,8;101010;93;0,0037;0,0;1,2;81;2,7;1,16;0,18;0;0;nan;28,2;28,2;29,6;27,6;2,4;3,3;4,2;5,7;-11,9;32,2;1324
2023-12-07 21:00:00;1,0;100880;92;0,0037;0,0;1,4;83;2,9;1,35;0,16;0;0;nan;28,2;28,2;29,6;27,6;2,3;3,2;4,1;5,7;-11,9;32,1;1325
2023-12-07 22:00:00;1,1;100810;91;0,0037;0,0;1,4;85;2,9;1,37;0,11;0;0;nan;28,1;28,1;29,6;27,6;2,3;3,1;4,1;5,7;-11,9;32,1;1326
2023-12-07 23:00:00;1,2;100710;92;0,0038;0,0;1,6;86;4,2;1,63;0,1;0;0;nan;28,1;28,1;29,5;27,6;2,3;3,1;4,1;5,7;-11,9;32,3;1323
2023-12-08 00:00:00;1,3;100573;92;0,0038;0,0;1,2;85;2,9;1,19;0,1;0;0;nan;28,1;28,1;29,5;27,6;2,2;3,1;4,1;5,7;-11,9;32,7;1319
2023-12-08 01:00:00;nan;nan;nan;nan;0,0;nan;nan;nan;nan;nan;nan;0;nan;28,0;28,0;29,5;27,6;2,3;3,0;4,0;5,7;-11,9;33,3;1312
2023-12-08 02:00:00;1,4;100490;92;0,0039;0,0;0,8;68;2,8;0,76;0,31;0;0;nan;28,0;28,0;29,4;27,6;2,3;3,0;4,0;5,7;-11,9;33,2;1313
2023-12-08 03:00:00;1,5;100430;92;0,0039;0,12;0,8;99;2,3;0,8;-0,12;0;0;nan;28,0;28,0;29,4;27,6;2,3;3,0;4,0;5,7;-11,9;33,3;1313
2023-12-08 04:00:00;nan;nan;nan;nan;0,0;nan;nan;nan;nan;nan;nan;0;nan;28,0;27,9;29,4;27,6;2,4;3,0;4,0;5,7;-12,0;33,4;1311
2023-12-08 05:00:00;1,8;100353;96;0,0041;2,08;0,9;86;2,2;0,85;0,06;0;0;nan;28,1;27,9;29,3;27,6;2,5;3,0;4,0;5,7;-12,0;33,4;1312
2023-12-08 06:00:00;2,2;100370;96;0,0043;0,12;1,3;134;4,7;0,92;-0,88;0;0;nan;28,2;27,9;29,3;27,6;2,5;3,1;3,9;5,7;-12,0;33,4;1312
2023-12-08 07:00:00;2,6;100370;96;0,0044;0,0;1,4;149;3,9;0,75;-1,24;0;0;nan;28,4;28,0;29,3;27,6;2,6;3,1;3,9;5,6;-12,0;33,0;1315
2023-12-08 08:00:00;2,7;100380;98;0,0045;0,03;1,2;168;2,8;0,24;-1,15;3;0;nan;28,4;28,0;29,3;27,6;2,7;3,1;3,9;5,6;-12,0;33,3;1313
2023-12-08 09:00:00;3,1;100400;99;0,0047;0,0;0,7;175;1,9;0,06;-0,73;14;0;nan;28,5;28,1;29,3;27,6;2,8;3,2;3,9;5,6;-12,0;33,0;1316
2023-12-08 10:00:00;3,7;100387;99;0,0049;0,06;0,8;183;2,1;-0,04;-0,77;18;0;nan;28,5;28,1;29,3;27,6;3,0;3,2;3,9;5,6;-12,0;32,8;1317
2023-12-08 11:00:00;nan;nan;nan;nan;0,0;nan;nan;nan;nan;nan;nan;0;nan;28,5;28,1;29,3;27,6;3,1;3,3;4,0;5,6;-12,0;32,6;1320
2023-12-08 12:00:00;4,2;100390;100;0,0051;0,12;1,1;194;3,6;-0,26;-1,08;24;0;nan;28,5;28,1;29,3;27,6;3,3;3,4;4,0;5,6;-11,9;32,6;1320